Location: ???????
(54.6339°N, 39.4245°E)
Time: 04:53:32
(UTC+00:00)

Cosmos 1110 Rocket - Pass Details

Date: 19 May 2025
Orbit: 748 x 777 km, 74.0° (Epoch: 19 June)

Event Time Altitude Azimuth Distance (km) Brightness Sun altitude
Rises 22:16:13 0° 332° (NNW) 3,272 8.0 -14.4°
Reaches altitude 10° 22:18:37 10° 331° (NNW) 2,339 7.2 -14.3°
Maximum altitude 22:23:56 79° 246° (WSW) 796 4.0 -14.1°
Enters shadow 22:28:29 14° 161° (SSE) 2,041 5.7 -13.9°
